Liberia, Costa Rica

7:24 AM CST on May 27, 2017 (GMT -0600)
Daniel Oduber Quiros International

Weather History for MRLB - April, 2015

Change the Weather History Date:

Saturday, April 18, 2015

  Actual Average Record
Temperature  
Mean Temperature 84 °F -  
Max Temperature 97 °F 91 °F 100 °F (1998)
Min Temperature 72 °F 76 °F 67 °F (2014)
Cooling Degree Days 20    
Growing Degree Days 34 (Base 50)    
Moisture  
Dew Point 65 °F    
Average Humidity 47    
Maximum Humidity 78    
Minimum Humidity 26    
Precipitation  
Precipitation 0.00 in - - ()
Sea Level Pressure  
Sea Level Pressure 29.82 in    
Wind  
Wind Speed 4 mph ()    
Max Wind Speed 17 mph    
Max Gust Speed 24 mph    
Visibility 7.7 miles    
Events      
Averages and records for this station are not official NWS values.
T = Trace of Precipitation, MM = Missing Value Source: Averaged Metar Reports

Daily Weather History Graph

Daily Weather History Graph

Search for Another Location

Airport or City:

Trip Planner

Search our weather history database for the weather conditions in past years. The results will help you decide how hot, cold, wet, or windy it might be!

Date:

Astronomy

Apr. 18, 2015 Rise Set
Actual Time 5:29 AM CST 5:53 PM CST
Civil Twilight 5:08 AM CST 6:14 PM CST
Nautical Twilight 4:43 AM CST 6:39 PM CST
Astronomical Twilight 4:18 AM CST 7:05 PM CST
Moon 5:21 AM CST (4/18) 6:02 PM CST (4/18)
Length of Visible Light 13h 06m
Length of Day
12h 23m
Waning Crescent, 0% of the Moon is Illuminated
Apr 18
Waning Crescent
Apr 18
New
Apr 25
First Quarter
May 3
Full
May 11
Last Quarter

Hourly Weather History & Observations

Time (CST) Temp. Heat Index Dew Point Humidity Pressure Visibility Wind Dir Wind Speed Gust Speed Precip Events Conditions
6:00 AM 72 °F - 66 °F 75% 29.88 in 12 mi Calm Calm - -  
6:00 AM 73.4 °F - 66.2 °F 78% 29.85 in - Calm Calm - N/A   Clear
7:00 AM 80.6 °F 82.7 °F 66.2 °F 61% 29.87 in - Calm Calm - N/A   Clear
8:00 AM 84.2 °F 86.6 °F 66.2 °F 55% 29.88 in - NW 2.3 mph - N/A   Clear
9:00 AM 89 °F - 65 °F 36% 29.89 in 12 mi NW 3.5 mph - -   Scattered Clouds
9:00 AM 89.6 °F 92.2 °F 66.2 °F 46% 29.88 in 6.2 mi NW 3.5 mph - N/A   Partly Cloudy
10:00 AM 91.4 °F 93.2 °F 64.4 °F 41% 29.86 in 6.2 mi East 17.3 mph - N/A   Partly Cloudy
11:00 AM 95.0 °F 96.0 °F 62.6 °F 34% 29.85 in 6.2 mi East 12.7 mph 24.2 mph N/A   Partly Cloudy
12:00 PM 95 °F - 64 °F 26% 29.84 in 12 mi East 10.4 mph - -   Scattered Clouds
12:00 PM 95.0 °F 97.0 °F 64.4 °F 36% 29.82 in 6.2 mi East 10.4 mph - N/A   Partly Cloudy
1:00 PM 95.0 °F 96.0 °F 62.6 °F 34% 29.80 in 6.2 mi East 8.1 mph - N/A   Partly Cloudy
2:00 PM 93.2 °F 96.2 °F 66.2 °F 41% 29.77 in 6.2 mi WNW 6.9 mph - N/A   Scattered Clouds
3:00 PM 94 °F - 67 °F 31% 29.76 in 12 mi West 8.1 mph - -   Partly Cloudy
3:00 PM 93.2 °F 96.2 °F 66.2 °F 41% 29.74 in 6.2 mi West 8.1 mph - N/A   Scattered Clouds
4:00 PM 93.2 °F 97.7 °F 68.0 °F 44% 29.74 in 6.2 mi WNW 9.2 mph - N/A   Scattered Clouds
5:00 PM 91.4 °F 94.0 °F 66.2 °F 43% 29.74 in 6.2 mi SSW 4.6 mph - N/A   Scattered Clouds
6:00 PM 89 °F - 61 °F 29% 29.78 in 12 mi ENE 9.2 mph - -   Scattered Clouds
6:00 PM 89.6 °F 89.5 °F 60.8 °F 38% 29.76 in 6.2 mi ENE 9.2 mph - N/A   Scattered Clouds
7:00 PM 86.0 °F 88.2 °F 66.2 °F 51% 29.78 in 6.2 mi SW 4.6 mph - N/A   Partly Cloudy
8:00 PM 84.2 °F 86.6 °F 66.2 °F 55% 29.79 in 6.2 mi SSW 2.3 mph - N/A   Partly Cloudy
9:00 PM 82.4 °F 84.6 °F 66.2 °F 58% 29.82 in - ESE 3.5 mph - N/A   Clear
10:00 PM 80.6 °F 82.7 °F 66.2 °F 61% 29.84 in 6.2 mi WSW 2.3 mph - N/A   Partly Cloudy
11:00 PM 78.8 °F - 66.2 °F 65% 29.84 in 6.2 mi West 4.6 mph - N/A   Partly Cloudy